Time,TemperatureF,DewpointF,PressureIn,WindDirection,WindDirectionDegrees,WindSpeedMPH,WindSpeedGustMPH,Humidity,HourlyPrecipIn,Conditions,Clouds,dailyrainin,SoftwareType,DateUTC
2013-04-22 00:08:00,49.1,38.0,30.29,SSE,152,5.0,10.0,67,0.00,,,0.00,weatherlink.com 1.10,2013-04-22 05:08:00,
2013-04-22 00:23:00,48.8,38.0,30.28,ESE,121,4.0,9.0,67,0.00,,,0.00,weatherlink.com 1.10,2013-04-22 05:23:00,
2013-04-22 00:38:00,48.5,38.0,30.28,ESE,116,4.0,8.0,68,0.00,,,0.00,weatherlink.com 1.10,2013-04-22 05:38:00,
2013-04-22 00:53:00,48.2,38.0,30.28,SE,127,5.0,9.0,68,0.00,,,0.00,weatherlink.com 1.10,2013-04-22 05:53:00,
2013-04-22 01:08:00,48.0,38.0,30.28,East,98,2.0,12.0,68,0.00,,,0.00,weatherlink.com 1.10,2013-04-22 06:08:00,
2013-04-22 01:23:00,47.6,38.0,30.27,South,171,4.0,8.0,69,0.00,,,0.00,weatherlink.com 1.10,2013-04-22 06:23:00,
2013-04-22 01:38:00,47.4,37.0,30.27,SE,140,4.0,6.0,68,0.00,,,0.00,weatherlink.com 1.10,2013-04-22 06:38:00,
2013-04-22 01:53:00,47.4,37.0,30.27,South,170,2.0,7.0,67,0.00,,,0.00,weatherlink.com 1.10,2013-04-22 06:53:00,
2013-04-22 02:08:00,46.3,37.0,30.27,SE,146,2.0,5.0,70,0.00,,,0.00,weatherlink.com 1.10,2013-04-22 07:08:00,
2013-04-22 02:23:00,45.9,37.0,30.27,SE,146,3.0,6.0,70,0.00,,,0.00,weatherlink.com 1.10,2013-04-22 07:23:00,
2013-04-22 02:40:00,46.4,36.0,30.26,SE,144,4.0,6.0,68,0.00,,,0.00,weatherlink.com 1.10,2013-04-22 07:40:00,
2013-04-22 02:53:00,46.7,36.0,30.26,SE,138,3.0,6.0,67,0.00,,,0.00,weatherlink.com 1.10,2013-04-22 07:53:00,
2013-04-22 03:08:00,46.9,36.0,30.26,SSE,168,3.0,6.0,66,0.00,,,0.00,weatherlink.com 1.10,2013-04-22 08:08:00,
2013-04-22 03:23:00,46.5,36.0,30.26,SSE,161,2.0,5.0,67,0.00,,,0.00,weatherlink.com 1.10,2013-04-22 08:23:00,
2013-04-22 03:38:00,46.6,36.0,30.25,SSE,164,3.0,6.0,66,0.00,,,0.00,weatherlink.com 1.10,2013-04-22 08:38:00,
2013-04-22 03:53:00,46.7,36.0,30.25,SE,146,2.0,5.0,66,0.00,,,0.00,weatherlink.com 1.10,2013-04-22 08:53:00,
2013-04-22 04:08:00,46.6,35.0,30.25,SE,144,2.0,9.0,65,0.00,,,0.00,weatherlink.com 1.10,2013-04-22 09:08:00,
2013-04-22 04:23:00,46.4,35.0,30.25,SE,142,0.0,8.0,65,0.00,,,0.00,weatherlink.com 1.10,2013-04-22 09:23:00,
2013-04-22 04:39:00,46.1,35.0,30.25,SSE,149,2.0,6.0,65,0.00,,,0.00,weatherlink.com 1.10,2013-04-22 09:39:00,
2013-04-22 04:54:00,45.9,35.0,30.24,ESE,122,5.0,7.0,65,0.00,,,0.00,weatherlink.com 1.10,2013-04-22 09:54:00,
2013-04-22 05:09:00,46.0,35.0,30.24,SE,136,4.0,7.0,65,0.00,,,0.00,weatherlink.com 1.10,2013-04-22 10:09:00,
2013-04-22 05:24:00,46.4,35.0,30.24,SSE,157,5.0,10.0,64,0.00,,,0.00,weatherlink.com 1.10,2013-04-22 10:24:00,
2013-04-22 05:39:00,46.3,35.0,30.23,SSE,165,5.0,11.0,64,0.00,,,0.00,weatherlink.com 1.10,2013-04-22 10:39:00,
2013-04-22 05:54:00,45.4,35.0,30.23,SSE,148,2.0,7.0,66,0.00,,,0.00,weatherlink.com 1.10,2013-04-22 10:54:00,
2013-04-22 06:09:00,44.8,34.0,30.23,SSE,167,3.0,7.0,67,0.00,,,0.00,weatherlink.com 1.10,2013-04-22 11:09:00,
2013-04-22 06:24:00,44.5,34.0,30.23,SE,142,2.0,5.0,68,0.00,,,0.00,weatherlink.com 1.10,2013-04-22 11:24:00,
2013-04-22 06:39:00,44.7,35.0,30.24,SE,140,1.0,7.0,68,0.00,,,0.00,weatherlink.com 1.10,2013-04-22 11:39:00,
2013-04-22 06:54:00,45.0,35.0,30.24,SSE,159,4.0,6.0,68,0.00,,,0.00,weatherlink.com 1.10,2013-04-22 11:54:00,
2013-04-22 07:09:00,45.6,36.0,30.24,SSE,165,3.0,7.0,68,0.00,,,0.00,weatherlink.com 1.10,2013-04-22 12:09:00,
2013-04-22 07:24:00,46.5,36.0,30.24,SSE,166,4.0,7.0,67,0.00,,,0.00,weatherlink.com 1.10,2013-04-22 12:24:00,
2013-04-22 07:39:00,47.6,36.0,30.23,SSE,165,5.0,8.0,65,0.00,,,0.00,weatherlink.com 1.10,2013-04-22 12:39:00,
2013-04-22 07:54:00,48.3,36.0,30.23,SSE,150,6.0,9.0,63,0.00,,,0.00,weatherlink.com 1.10,2013-04-22 12:54:00,
2013-04-22 08:09:00,49.5,37.0,30.23,South,185,5.0,10.0,62,0.00,,,0.00,weatherlink.com 1.10,2013-04-22 13:09:00,
2013-04-22 08:24:00,50.7,37.0,30.23,SSE,160,5.0,10.0,59,0.00,,,0.00,weatherlink.com 1.10,2013-04-22 13:24:00,
2013-04-22 08:39:00,52.2,36.0,30.23,SSW,198,9.0,11.0,54,0.00,,,0.00,weatherlink.com 1.10,2013-04-22 13:39:00,
2013-04-22 08:54:00,53.5,36.0,30.23,SSE,150,6.0,10.0,51,0.00,,,0.00,weatherlink.com 1.10,2013-04-22 13:54:00,
2013-04-22 09:09:00,54.2,35.0,30.22,SSE,163,4.0,15.0,48,0.00,,,0.00,weatherlink.com 1.10,2013-04-22 14:09:00,
2013-04-22 09:24:00,55.2,36.0,30.22,South,175,11.0,11.0,48,0.00,,,0.00,weatherlink.com 1.10,2013-04-22 14:24:00,
2013-04-22 09:39:00,55.9,36.0,30.21,South,181,7.0,12.0,47,0.00,,,0.00,weatherlink.com 1.10,2013-04-22 14:39:00,
2013-04-22 09:56:00,57.1,37.0,30.22,SSE,160,5.0,9.0,47,0.00,,,0.00,weatherlink.com 1.10,2013-04-22 14:56:00,
2013-04-22 10:09:00,57.6,37.0,30.22,SSW,207,7.0,10.0,47,0.00,,,0.00,weatherlink.com 1.10,2013-04-22 15:09:00,
2013-04-22 10:24:00,58.2,38.0,30.21,South,172,3.0,9.0,47,0.00,,,0.00,weatherlink.com 1.10,2013-04-22 15:24:00,
2013-04-22 10:39:00,59.6,37.0,30.22,South,178,3.0,10.0,44,0.00,,,0.00,weatherlink.com 1.10,2013-04-22 15:39:00,
2013-04-22 10:54:00,60.2,37.0,30.21,SSE,150,8.0,14.0,43,0.00,,,0.00,weatherlink.com 1.10,2013-04-22 15:54:00,
2013-04-22 11:10:00,61.2,37.0,30.21,SSE,157,6.0,10.0,41,0.00,,,0.00,weatherlink.com 1.10,2013-04-22 16:10:00,
2013-04-22 11:25:00,62.1,37.0,30.21,ESE,113,9.0,11.0,40,0.00,,,0.00,weatherlink.com 1.10,2013-04-22 16:25:00,
2013-04-22 11:40:00,62.6,37.0,30.21,ESE,115,3.0,11.0,39,0.00,,,0.00,weatherlink.com 1.10,2013-04-22 16:40:00,
2013-04-22 11:55:00,62.6,37.0,30.20,South,181,5.0,14.0,39,0.00,,,0.00,weatherlink.com 1.10,2013-04-22 16:55:00,
2013-04-22 12:10:00,63.9,38.0,30.19,SSE,166,5.0,11.0,38,0.00,,,0.00,weatherlink.com 1.10,2013-04-22 17:10:00,
2013-04-22 12:25:00,64.7,37.0,30.18,SSW,196,5.0,12.0,36,0.00,,,0.00,weatherlink.com 1.10,2013-04-22 17:25:00,
2013-04-22 12:40:00,65.6,37.0,30.17,SSE,164,4.0,11.0,35,0.00,,,0.00,weatherlink.com 1.10,2013-04-22 17:40:00,
2013-04-22 12:55:00,65.0,37.0,30.16,SE,141,2.0,12.0,35,0.00,,,0.00,weatherlink.com 1.10,2013-04-22 17:55:00,
2013-04-22 13:10:00,65.4,37.0,30.16,South,173,5.0,12.0,35,0.00,,,0.00,weatherlink.com 1.10,2013-04-22 18:10:00,
2013-04-22 13:25:00,66.7,38.0,30.14,East,99,6.0,8.0,35,0.00,,,0.00,weatherlink.com 1.10,2013-04-22 18:25:00,
2013-04-22 13:40:00,66.8,38.0,30.14,SE,136,4.0,12.0,35,0.00,,,0.00,weatherlink.com 1.10,2013-04-22 18:40:00,
2013-04-22 13:55:00,66.4,37.0,30.13,SSE,155,4.0,13.0,34,0.00,,,0.00,weatherlink.com 1.10,2013-04-22 18:55:00,
2013-04-22 14:10:00,67.3,38.0,30.12,SE,126,9.0,12.0,34,0.00,,,0.00,weatherlink.com 1.10,2013-04-22 19:10:00,
2013-04-22 14:25:00,67.1,38.0,30.11,SE,134,10.0,13.0,34,0.00,,,0.00,weatherlink.com 1.10,2013-04-22 19:25:00,
2013-04-22 14:40:00,67.1,38.0,30.10,ESE,121,9.0,14.0,34,0.00,,,0.00,weatherlink.com 1.10,2013-04-22 19:40:00,
2013-04-22 14:55:00,67.5,39.0,30.09,South,172,5.0,14.0,36,0.00,,,0.00,weatherlink.com 1.10,2013-04-22 19:55:00,
2013-04-22 15:10:00,67.2,38.0,30.08,South,186,5.0,15.0,34,0.00,,,0.00,weatherlink.com 1.10,2013-04-22 20:10:00,
2013-04-22 15:25:00,68.0,38.0,30.07,South,190,8.0,17.0,34,0.00,,,0.00,weatherlink.com 1.10,2013-04-22 20:25:00,
2013-04-22 15:40:00,68.5,38.0,30.06,SE,143,6.0,15.0,33,0.00,,,0.00,weatherlink.com 1.10,2013-04-22 20:40:00,
2013-04-22 15:55:00,69.1,38.0,30.05,SE,126,7.0,13.0,32,0.00,,,0.00,weatherlink.com 1.10,2013-04-22 20:55:00,
2013-04-22 16:10:00,68.5,38.0,30.04,SE,128,4.0,14.0,33,0.00,,,0.00,weatherlink.com 1.10,2013-04-22 21:10:00,
2013-04-22 16:25:00,68.2,39.0,30.04,South,172,9.0,15.0,34,0.00,,,0.00,weatherlink.com 1.10,2013-04-22 21:25:00,
2013-04-22 16:40:00,68.3,38.0,30.04,SSE,164,13.0,17.0,33,0.00,,,0.00,weatherlink.com 1.10,2013-04-22 21:40:00,
2013-04-22 16:55:00,68.1,40.0,30.04,South,190,6.0,14.0,36,0.00,,,0.00,weatherlink.com 1.10,2013-04-22 21:55:00,
2013-04-22 17:13:00,67.1,39.0,30.02,SE,130,3.0,16.0,36,0.00,,,0.00,weatherlink.com 1.10,2013-04-22 22:13:00,
2013-04-22 17:25:00,67.4,39.0,30.02,SSE,165,6.0,13.0,36,0.00,,,0.00,weatherlink.com 1.10,2013-04-22 22:25:00,
2013-04-22 17:40:00,67.4,39.0,30.02,SSE,160,12.0,14.0,35,0.00,,,0.00,weatherlink.com 1.10,2013-04-22 22:40:00,
2013-04-22 17:55:00,66.5,39.0,30.02,South,178,5.0,14.0,36,0.00,,,0.00,weatherlink.com 1.10,2013-04-22 22:55:00,
2013-04-22 18:11:00,65.7,41.0,30.02,ESE,106,5.0,13.0,40,0.00,,,0.00,weatherlink.com 1.10,2013-04-22 23:11:00,
2013-04-22 18:26:00,65.1,41.0,30.02,ESE,113,5.0,12.0,41,0.00,,,0.00,weatherlink.com 1.10,2013-04-22 23:26:00,
2013-04-22 18:41:00,64.8,41.0,30.02,SSE,156,3.0,13.0,42,0.00,,,0.00,weatherlink.com 1.10,2013-04-22 23:41:00,
2013-04-22 18:56:00,64.4,41.0,30.01,SE,140,3.0,9.0,43,0.00,,,0.00,weatherlink.com 1.10,2013-04-22 23:56:00,
2013-04-22 19:11:00,64.0,41.0,30.00,SSE,150,3.0,8.0,43,0.00,,,0.00,weatherlink.com 1.10,2013-04-23 00:11:00,
2013-04-22 19:26:00,63.4,42.0,29.99,SE,142,3.0,8.0,45,0.00,,,0.00,weatherlink.com 1.10,2013-04-23 00:26:00,
2013-04-22 19:41:00,62.9,42.0,29.99,South,175,3.0,7.0,46,0.00,,,0.00,weatherlink.com 1.10,2013-04-23 00:41:00,
2013-04-22 19:56:00,62.7,43.0,30.00,SSE,154,2.0,7.0,48,0.00,,,0.00,weatherlink.com 1.10,2013-04-23 00:56:00,
2013-04-22 20:11:00,62.2,43.0,30.00,ESE,111,2.0,8.0,50,0.00,,,0.00,weatherlink.com 1.10,2013-04-23 01:11:00,
2013-04-22 20:26:00,61.7,43.0,30.00,SE,138,1.0,7.0,51,0.00,,,0.00,weatherlink.com 1.10,2013-04-23 01:26:00,
2013-04-22 20:41:00,61.1,43.0,30.01,ESE,123,2.0,6.0,52,0.00,,,0.00,weatherlink.com 1.10,2013-04-23 01:41:00,
2013-04-22 20:56:00,60.6,44.0,30.01,SE,138,2.0,7.0,54,0.00,,,0.00,weatherlink.com 1.10,2013-04-23 01:56:00,
2013-04-22 21:11:00,60.2,44.0,30.01,ESE,117,1.0,7.0,56,0.00,,,0.00,weatherlink.com 1.10,2013-04-23 02:11:00,
2013-04-22 21:26:00,60.1,44.0,30.01,SE,135,0.0,7.0,56,0.00,,,0.00,weatherlink.com 1.10,2013-04-23 02:26:00,
2013-04-22 21:41:00,60.3,44.0,30.01,SE,129,3.0,9.0,56,0.00,,,0.00,weatherlink.com 1.10,2013-04-23 02:41:00,
2013-04-22 21:56:00,60.4,44.0,30.02,SE,141,4.0,8.0,56,0.00,,,0.00,weatherlink.com 1.10,2013-04-23 02:56:00,
2013-04-22 22:11:00,60.3,45.0,30.03,South,173,3.0,8.0,57,0.00,,,0.00,weatherlink.com 1.10,2013-04-23 03:11:00,
2013-04-22 22:26:00,59.6,46.0,30.04,SW,231,3.0,8.0,61,0.00,,,0.00,weatherlink.com 1.10,2013-04-23 03:26:00,
2013-04-22 22:41:00,59.5,47.0,30.04,South,173,2.0,11.0,63,0.00,,,0.00,weatherlink.com 1.10,2013-04-23 03:41:00,
2013-04-22 22:56:00,58.1,49.0,30.03,SE,145,0.0,2.0,72,0.00,,,0.00,weatherlink.com 1.10,2013-04-23 03:56:00,
2013-04-22 23:11:00,57.0,48.0,30.03,SSE,163,1.0,5.0,73,0.01,,,0.01,weatherlink.com 1.10,2013-04-23 04:11:00,
2013-04-22 23:27:00,56.6,48.0,30.03,SSE,149,2.0,5.0,74,0.01,,,0.01,weatherlink.com 1.10,2013-04-23 04:27:00,
2013-04-22 23:41:00,56.4,49.0,30.03,SE,140,3.0,6.0,75,0.01,,,0.01,weatherlink.com 1.10,2013-04-23 04:41:00,